Weather in Gribovka

Russia / Amur Oblast     49°28′24″N   130°22′30″E
temp.,
°C
wind,
m/s
gust,
m/s
humid.,
%
clouds,
%
prec.,
mm/h
press.,
hPa
HPBL,
m
11 may, tue
tue1100:00+6ssw1296100 0.0 1014103
03:00+6sw1297100 0.1 101568
06:00+6sse1196100 0.1 101563
09:00+7sse1286100 0.1 1016333
12:00+12s236491 0.1 10151237
15:00+12sse346087 0.3 10151272
18:00+12sse466599 0.0 1014882
21:00+8se41181100 0.0 1015447
12 may, wed
wed1200:00+7se41379100 0.0 1014538
03:00+7se51479100 0.0 1013616
06:00+8se61576100 0.0 1009794
09:00+10se71666100 0.0 1006976
12:00+9se81681100 1.1 10051752
15:00+8sse71588100 5.0 1003988
18:00+10se61388100 0.1 1002811
21:00+9se51288100 0.8 1001459
13 may, thu
thu1300:00+9sse51484100 0.6 1000580
03:00+7ssw398999 0.8 1002303
06:00+7ssw41189100 0.3 1004575
09:00+8ssw3987100 0.4 1005637
12:00+12sw486896 0.1 10061271
15:00+17wnw4104415 0.2 10052312
18:00+16nnw36535 0.0 1006750
21:00+10e22805 0.0 100834
14 may, fri
fri1400:00+8e1180100 0.0 100815
03:00+8ese1174100 0.0 100714
06:00+9ese2269100 0.0 100864
09:00+16s4948100 0.0 1006566
12:00+21ssw61035100 0.0 10042437
15:00+20s61141100 0.0 10011542
18:00+18ssw51252100 0.1 999981
21:00+11nnw2686100 0.4 1002430
15 may, sat
sat1500:00+7nnw3793100 4.8 1003468
03:00+7nnw2794100 11.5 1001479
06:00+6nw389435 0.3 1002508
09:00+10wnw467594 0.3 10021122
12:00+11w4775100 1.1 10011190
15:00+13wnw61061100 1.9 10011988
18:00+11wnw41065100 0.1 1002999
21:00+9ssw267723 0.1 100097